GW0881 Weather Reports


Display with metric or nautical units.
time (UTC)temp
F
wind
direction
speed
MPH
gust
MPH
rain 1hr
in
rain 24hr
in
rain mn
in
humidity
%
barometer
mb
20240414082601 47 25 0.0 0.0 0.00 0.00 0.00 72 1003.2
20240414082100 47 26 0.0 0.0 0.00 0.00 0.00 71 1003.2
20240414081558 47 26 0.0 0.0 0.00 0.00 0.00 71 1003.1
20240414081057 48 26 0.0 0.0 0.00 0.00 0.00 69 1003.3
20240414080555 48 26 0.0 0.0 0.00 0.00 0.00 68 1003.0
20240414080054 49 26 0.0 0.0 0.00 0.00 0.00 65 1003.0
20240414075553 50 26 0.0 0.0 0.00 0.00 0.00 63 1003.0
20240414075052 50 26 0.0 0.0 0.00 0.00 0.00 63 1003.1
20240414074550 50 26 0.0 0.0 0.00 0.00 0.00 63 1003.0
20240414074049 51 27 0.0 0.0 0.00 0.00 0.00 62 1002.7
20240414073548 52 27 0.0 0.0 0.00 0.00 0.00 59 1002.7
20240414073048 52 27 1.0 1.0 0.00 0.00 0.00 59 1003.2
20240414072546 52 21 0.0 0.0 0.00 0.00 0.00 59 1003.0
20240414072044 53 21 0.0 1.0 0.00 0.00 0.00 58 1002.8
20240414071543 53 22 0.0 1.0 0.00 0.00 0.00 58 1003.0
20240414071043 53 23 2.0 2.0 0.00 0.00 0.00 58 1002.9
20240414070542 53 23 2.0 2.0 0.00 0.00 0.00 59 1003.0
20240414070041 53 23 1.0 1.0 0.00 0.00 0.00 59 1002.9
20240414065539 53 24 0.0 0.0 0.00 0.00 0.00 60 1002.8
20240414065038 53 33 2.0 2.0 0.00 0.00 0.00 59 1002.9
20240414064536 53 147 1.0 1.0 0.00 0.00 0.00 61 1002.3
20240414064034 54 147 0.0 0.0 0.00 0.00 0.00 58 1002.2
20240414063534 54 147 0.0 0.0 0.00 0.00 0.00 57 1002.3
20240414063031 55 147 0.0 0.0 0.00 0.00 0.00 56 1002.3
20240414062530 57 146 0.0 0.0 0.00 0.00 0.00 53 1002.1
20240414062030 57 146 0.0 0.0 0.00 0.00 0.00 53 1002.0
20240414061527 58 145 1.0 1.0 0.00 0.00 0.00 51 1002.2
20240414061026 58 136 0.0 1.0 0.00 0.00 0.00 51 1002.2
20240414060525 58 60 7.0 7.0 0.00 0.00 0.00 50 1002.4
20240414060024 58 89 4.0 6.0 0.00 0.00 0.00 50 1002.2
20240414055523 57 74 1.0 1.0 0.00 0.00 0.00 54 1001.8
20240414055023 57 100 0.0 0.0 0.00 0.00 0.00 56 1001.7
20240414054520 58 84 1.0 2.0 0.00 0.00 0.00 55 1001.5
20240414054020 59 126 0.0 0.0 0.00 0.00 0.00 51 1001.5
20240414053518 60 117 0.0 1.0 0.00 0.00 0.00 49 1001.6
20240414053016 60 52 3.0 3.0 0.00 0.00 0.00 49 1001.5
20240414052515 60 65 1.0 2.0 0.00 0.00 0.00 50 1001.6
20240414052013 61 77 3.0 3.0 0.00 0.00 0.00 49 1001.7
20240414051512 61 56 0.0 1.0 0.00 0.00 0.00 49 1001.2
20240414051010 61 73 2.0 3.0 0.00 0.00 0.00 50 1001.2
20240414050509 61 79 5.0 6.0 0.00 0.00 0.00 50 1001.3
20240414050006 62 48 2.0 2.0 0.00 0.00 0.00 50 1001.2
20240414045505 62 67 2.0 2.0 0.00 0.00 0.00 50 1000.8
20240414045005 63 46 2.0 3.0 0.00 0.00 0.00 49 1001.0
20240414044503 62 45 3.0 3.0 0.00 0.00 0.00 50 1000.9
20240414044002 63 52 1.0 2.0 0.00 0.00 0.00 51 1001.0
20240414043501 63 47 3.0 3.0 0.00 0.00 0.00 50 1000.8
20240414043000 64 57 2.0 2.0 0.00 0.00 0.00 51 1000.7
20240414042459 64 50 2.0 2.0 0.00 0.00 0.00 50 1000.5
20240414041957 64 69 7.0 8.0 0.00 0.00 0.00 50 1000.7
20240414041456 65 35 3.0 3.0 0.00 0.00 0.00 51 1000.5
20240414040956 65 27 3.0 5.0 0.00 0.00 0.00 53 1000.4
20240414040455 65 59 3.0 5.0 0.00 0.00 0.00 53 1000.4
20240414035954 64 56 4.0 5.0 0.00 0.00 0.00 54 1000.2
20240414035452 63 63 0.0 0.0 0.00 0.00 0.00 57 1000.1
20240414034951 61 3 0.0 0.0 0.00 0.00 0.00 59 1000.1
20240414034449 59 38 1.0 2.0 0.00 0.00 0.00 65 999.8
20240414033948 60 146 0.0 0.0 0.00 0.00 0.00 62 999.8
20240414033448 60 221 0.0 0.0 0.00 0.00 0.00 62 999.8
20240414032946 61 223 0.0 0.0 0.00 0.00 0.00 60 999.6
20240414032444 62 223 0.0 0.0 0.00 0.00 0.00 59 999.7
20240414031942 63 223 0.0 0.0 0.00 0.00 0.00 56 999.6
20240414031441 63 229 0.0 0.0 0.00 0.00 0.00 56 999.3
20240414030939 64 229 0.0 0.0 0.00 0.00 0.00 54 999.4
20240414030438 64 229 0.0 0.0 0.00 0.00 0.00 53 999.4
20240414025936 65 229 0.0 0.0 0.00 0.00 0.00 51 999.3
20240414025434 65 229 0.0 0.0 0.00 0.00 0.00 50 999.3
20240414024933 66 229 0.0 0.0 0.00 0.00 0.00 49 999.5
20240414024432 66 229 0.0 0.0 0.00 0.00 0.00 50 999.4
20240414023930 67 229 0.0 0.0 0.00 0.00 0.00 46 999.5
20240414023430 69 229 0.0 0.0 0.00 0.00 0.00 43 999.3
20240414022929 72 237 0.0 0.0 0.00 0.00 0.00 40 999.5
20240414022428 73 238 0.0 0.0 0.00 0.00 0.00 37 999.4
20240414021927 74 247 1.0 1.0 0.00 0.00 0.00 35 999.5
20240414021424 74 245 2.0 2.0 0.00 0.00 0.00 35 999.6
20240414020923 74 298 3.0 3.0 0.00 0.00 0.00 35 999.4
20240414020423 74 246 1.0 1.0 0.00 0.00 0.00 37 999.2
20240414015922 74 246 1.0 1.0 0.00 0.00 0.00 36 999.1
20240414015422 73 280 3.0 3.0 0.00 0.00 0.00 36 999.1
20240414014920 75 238 1.0 1.0 0.00 0.00 0.00 35 999.1
20240414014420 75 220 2.0 2.0 0.00 0.00 0.00 36 999.0
20240414013918 76 310 1.0 1.0 0.00 0.00 0.00 34 999.1
20240414013418 75 311 1.0 2.0 0.00 0.00 0.00 35 998.8
20240414012916 73 315 3.0 3.0 0.00 0.00 0.00 36 998.8
20240414012414 75 236 0.0 0.0 0.00 0.00 0.00 37 998.6
20240414011914 76 216 0.0 0.0 0.00 0.00 0.00 34 998.5
20240414011413 77 213 0.0 0.0 0.00 0.00 0.00 33 998.6
20240414010912 77 219 0.0 0.0 0.00 0.00 0.00 33 998.6
20240414010409 78 214 1.0 2.0 0.00 0.00 0.00 32 998.6
20240414005907 78 223 1.0 2.0 0.00 0.00 0.00 32 998.8
20240414005405 78 238 1.0 1.0 0.00 0.00 0.00 31 998.7
20240414004904 79 247 2.0 2.0 0.00 0.00 0.00 31 998.8
20240414004404 80 249 2.0 2.0 0.00 0.00 0.00 30 998.7
20240414003902 80 228 2.0 2.0 0.00 0.00 0.00 30 998.7
20240414003401 80 230 1.0 1.0 0.00 0.00 0.00 29 998.7
20240414002900 81 229 1.0 1.0 0.00 0.00 0.00 29 999.0
20240414002358 81 252 3.0 3.0 0.00 0.00 0.00 28 998.8
20240414001858 82 225 2.0 2.0 0.00 0.00 0.00 28 999.0
20240414001359 82 238 2.0 2.0 0.00 0.00 0.00 29 999.2
20240414000858 82 249 2.0 2.0 0.00 0.00 0.00 28 999.2
20240414000356 83 235 3.0 3.0 0.00 0.00 0.00 28 999.1
20240413235855 83 236 3.0 3.0 0.00 0.00 0.00 29 999.2
20240413235353 82 231 2.0 2.0 0.00 0.00 0.00 29 999.2
20240413234852 83 216 1.0 1.0 0.00 0.00 0.00 29 999.3
20240413234351 83 239 3.0 3.0 0.00 0.00 0.00 30 999.3
20240413233851 82 246 4.0 5.0 0.00 0.00 0.00 30 999.4
20240413233351 82 224 1.0 1.0 0.00 0.00 0.00 31 999.4
20240413232851 83 237 1.0 1.0 0.00 0.00 0.00 30 999.3
20240413232349 83 240 5.0 6.0 0.00 0.00 0.00 30 999.3
20240413231847 83 237 2.0 2.0 0.00 0.00 0.00 30 999.4
20240413231346 83 221 1.0 2.0 0.00 0.00 0.00 31 999.7
20240413230846 82 248 2.0 2.0 0.00 0.00 0.00 31 999.7
20240413230347 82 225 3.0 5.0 0.00 0.00 0.00 33 999.7
20240413225846 81 243 5.0 6.0 0.00 0.00 0.00 33 999.7
20240413225344 81 214 4.0 6.0 0.00 0.00 0.00 33 999.8
20240413224842 82 228 3.0 3.0 0.00 0.00 0.00 33 999.7
20240413224341 82 206 1.0 2.0 0.00 0.00 0.00 32 999.5
20240413223840 82 241 2.0 2.0 0.00 0.00 0.00 32 999.6
20240413223338 81 205 3.0 3.0 0.00 0.00 0.00 33 999.8
20240413222837 81 199 5.0 6.0 0.00 0.00 0.00 33 1000.0
20240413222336 81 224 4.0 5.0 0.00 0.00 0.00 33 999.8
20240413221835 81 210 4.0 6.0 0.00 0.00 0.00 34 1000.3
20240413221335 82 227 5.0 6.0 0.00 0.00 0.00 34 1000.4
20240413220833 81 214 1.0 2.0 0.00 0.00 0.00 36 1000.4
20240413220332 81 223 3.0 5.0 0.00 0.00 0.00 36 1000.2
20240413215830 81 243 4.0 5.0 0.00 0.00 0.00 34 1000.4
20240413215330 80 234 3.0 3.0 0.00 0.00 0.00 35 1000.4
20240413214828 80 198 3.0 5.0 0.00 0.00 0.00 36 1000.3
20240413214326 79 228 2.0 2.0 0.00 0.00 0.00 36 1000.5
20240413213826 80 204 2.0 2.0 0.00 0.00 0.00 35 1000.9
20240413213323 81 210 3.0 3.0 0.00 0.00 0.00 35 1000.7
20240413212822 81 204 2.0 3.0 0.00 0.00 0.00 34 1000.8
20240413212321 81 230 3.0 3.0 0.00 0.00 0.00 35 1001.1
20240413211820 80 207 3.0 5.0 0.00 0.00 0.00 36 1001.4
20240413211319 80 219 3.0 3.0 0.00 0.00 0.00 35 1001.4
20240413210817 80 262 3.0 3.0 0.00 0.00 0.00 36 1001.7
20240413210315 80 201 3.0 3.0 0.00 0.00 0.00 34 1001.8
20240413205815 80 220 4.0 5.0 0.00 0.00 0.00 35 1002.0
20240413205313 80 242 8.0 10.0 0.00 0.00 0.00 35 1002.3
20240413204812 81 247 5.0 7.0 0.00 0.00 0.00 34 1002.3
20240413204312 79 228 5.0 6.0 0.00 0.00 0.00 35 1002.4
20240413203810 78 242 3.0 5.0 0.00 0.00 0.00 36 1002.6
20240413203310 78 223 3.0 5.0 0.00 0.00 0.00 35 1002.7
20240413202809 78 218 4.0 7.0 0.00 0.00 0.00 34 1002.9
20240413202307 79 239 6.0 7.0 0.00 0.00 0.00 33 1002.9
20240413201808 80 148 5.0 8.0 0.00 0.00 0.00 33 1003.1
20240413201306 80 219 4.0 5.0 0.00 0.00 0.00 32 1003.3
20240413200805 79 220 4.0 6.0 0.00 0.00 0.00 34 1003.2
20240413200304 79 200 3.0 6.0 0.00 0.00 0.00 33 1003.4
20240413195803 79 217 2.0 2.0 0.00 0.00 0.00 32 1003.6
20240413195301 78 232 6.0 7.0 0.00 0.00 0.00 32 1003.7
20240413194802 78 212 5.0 7.0 0.00 0.00 0.00 32 1003.3
20240413194301 78 134 4.0 7.0 0.00 0.00 0.00 31 1003.7
20240413193801 78 229 3.0 3.0 0.00 0.00 0.00 31 1003.7
20240413193259 78 208 4.0 5.0 0.00 0.00 0.00 31 1003.9
20240413192758 78 224 3.0 6.0 0.00 0.00 0.00 32 1004.1
20240413192257 78 214 3.0 3.0 0.00 0.00 0.00 31 1004.0
20240413191755 77 230 5.0 6.0 0.00 0.00 0.00 31 1004.3
20240413191254 77 225 7.0 7.0 0.00 0.00 0.00 30 1004.6
20240413190752 76 236 6.0 9.0 0.00 0.00 0.00 30 1004.6
20240413190252 75 186 4.0 5.0 0.00 0.00 0.00 31 1004.9
20240413185750 75 206 6.0 8.0 0.00 0.00 0.00 30 1004.9
20240413185249 74 185 3.0 5.0 0.00 0.00 0.00 31 1005.1
20240413184748 74 234 4.0 5.0 0.00 0.00 0.00 31 1005.3
20240413184247 74 200 5.0 6.0 0.00 0.00 0.00 31 1005.4
20240413183747 74 176 3.0 5.0 0.00 0.00 0.00 33 1005.5
20240413183246 73 196 6.0 9.0 0.00 0.00 0.00 30 1005.7
20240413182744 73 197 4.0 5.0 0.00 0.00 0.00 33 1005.8
20240413182243 72 223 6.0 8.0 0.00 0.00 0.00 31 1005.8
20240413181743 72 261 3.0 5.0 0.00 0.00 0.00 34 1006.3
20240413181242 71 213 1.0 2.0 0.00 0.00 0.00 34 1006.3
20240413180740 71 224 5.0 8.0 0.00 0.00 0.00 32 1006.3
20240413180239 70 177 3.0 3.0 0.00 0.00 0.00 32 1006.4
20240413175737 70 188 3.0 5.0 0.00 0.00 0.00 34 1006.7
20240413175236 69 199 1.0 1.0 0.00 0.00 0.00 34 1006.9
20240413174735 69 190 4.0 5.0 0.00 0.00 0.00 33 1007.1
20240413174234 69 207 5.0 7.0 0.00 0.00 0.00 33 1007.0
20240413173733 69 219 4.0 5.0 0.00 0.00 0.00 34 1007.1
20240413173233 68 228 5.0 7.0 0.00 0.00 0.00 32 1007.2
20240413172731 68 203 4.0 5.0 0.00 0.00 0.00 33 1007.6
20240413172231 67 209 3.0 5.0 0.00 0.00 0.00 34 1007.6
20240413171729 68 193 2.0 5.0 0.00 0.00 0.00 34 1007.7
20240413171229 67 180 2.0 3.0 0.00 0.00 0.00 37 1007.9
20240413170728 67 195 4.0 6.0 0.00 0.00 0.00 33 1008.3
20240413170227 67 213 7.0 8.0 0.00 0.00 0.00 32 1008.3
20240413165725 66 202 3.0 5.0 0.00 0.00 0.00 33 1008.5
20240413165225 66 186 3.0 5.0 0.00 0.00 0.00 34 1008.5
20240413164723 65 248 4.0 5.0 0.00 0.00 0.00 34 1008.4
20240413164222 66 197 3.0 5.0 0.00 0.00 0.00 33 1008.6
20240413163721 66 188 0.0 1.0 0.00 0.00 0.00 34 1008.9
20240413163220 65 198 1.0 1.0 0.00 0.00 0.00 35 1008.8
20240413162719 64 191 4.0 7.0 0.00 0.00 0.00 35 1009.0
20240413162218 64 189 3.0 5.0 0.00 0.00 0.00 36 1009.2
20240413161717 64 194 4.0 5.0 0.00 0.00 0.00 36 1009.1
20240413161216 64 190 1.0 2.0 0.00 0.00 0.00 38 1009.4
20240413160714 63 197 4.0 6.0 0.00 0.00 0.00 37 1009.5
20240413160212 63 177 1.0 3.0 0.00 0.00 0.00 39 1009.8
20240413155710 63 188 2.0 3.0 0.00 0.00 0.00 36 1010.0
20240413155209 62 202 1.0 2.0 0.00 0.00 0.00 36 1010.2
20240413154708 62 190 4.0 5.0 0.00 0.00 0.00 37 1010.3
20240413154208 63 209 2.0 2.0 0.00 0.00 0.00 36 1010.4
20240413153708 62 219 2.0 2.0 0.00 0.00 0.00 39 1010.5
20240413153208 61 233 3.0 3.0 0.00 0.00 0.00 37 1010.7
20240413152706 60 182 2.0 2.0 0.00 0.00 0.00 37 1010.6
20240413152206 60 176 3.0 5.0 0.00 0.00 0.00 39 1010.7
20240413151704 60 182 4.0 5.0 0.00 0.00 0.00 40 1010.8
20240413151203 59 191 3.0 3.0 0.00 0.00 0.00 40 1010.8
20240413150702 59 213 4.0 5.0 0.00 0.00 0.00 40 1010.9
20240413150201 58 206 2.0 2.0 0.00 0.00 0.00 42 1010.8
20240413145659 59 171 4.0 5.0 0.00 0.00 0.00 41 1011.1
20240413145158 59 191 2.0 2.0 0.00 0.00 0.00 42 1011.0
20240413144657 57 190 1.0 1.0 0.00 0.00 0.00 43 1011.1
20240413144155 57 204 2.0 2.0 0.00 0.00 0.00 44 1011.2
20240413143653 57 182 1.0 1.0 0.00 0.00 0.00 45 1011.2
20240413143153 56 205 3.0 3.0 0.00 0.00 0.00 44 1011.5
20240413142651 56 191 3.0 5.0 0.00 0.00 0.00 45 1011.5
20240413142149 56 197 2.0 2.0 0.00 0.00 0.00 46 1011.8
20240413141648 55 193 3.0 3.0 0.00 0.00 0.00 45 1012.0
20240413141148 55 188 1.0 1.0 0.00 0.00 0.00 47 1012.4
20240413140647 55 215 4.0 5.0 0.00 0.00 0.00 47 1012.4
20240413140146 54 194 1.0 1.0 0.00 0.00 0.00 48 1012.4
20240413135644 54 208 2.0 2.0 0.00 0.00 0.00 49 1012.6
20240413135142 53 189 2.0 2.0 0.00 0.00 0.00 48 1012.9
20240413134640 53 186 1.0 1.0 0.00 0.00 0.00 50 1012.9
20240413134138 52 189 0.0 0.0 0.00 0.00 0.00 51 1013.0
20240413133636 51 216 2.0 2.0 0.00 0.00 0.00 54 1013.1
20240413133135 51 207 2.0 2.0 0.00 0.00 0.00 52 1013.2
20240413132634 50 181 3.0 3.0 0.00 0.00 0.00 54 1013.2
20240413132133 50 186 0.0 1.0 0.00 0.00 0.00 57 1013.4
20240413131632 49 195 1.0 2.0 0.00 0.00 0.00 56 1013.2
20240413131130 48 206 1.0 1.0 0.00 0.00 0.00 59 1013.5
20240413130629 47 200 0.0 0.0 0.00 0.00 0.00 62 1013.6
20240413130129 46 200 0.0 0.0 0.00 0.00 0.00 64 1013.7
20240413125628 45 200 1.0 1.0 0.00 0.00 0.00 65 1013.8
20240413125127 44 200 0.0 0.0 0.00 0.00 0.00 68 1013.9
20240413124627 42 214 1.0 1.0 0.00 0.00 0.00 73 1014.0
20240413124127 40 221 0.0 0.0 0.00 0.00 0.00 78 1014.1
20240413123626 38 222 0.0 0.0 0.00 0.00 0.00 83 1014.4
20240413123126 37 222 0.0 0.0 0.00 0.00 0.00 84 1014.3
20240413122625 37 222 0.0 0.0 0.00 0.00 0.00 85 1014.2
20240413122125 35 232 0.0 0.0 0.00 0.00 0.00 87 1014.1
20240413121624 35 232 0.0 0.0 0.00 0.00 0.00 87 1014.3
20240413121123 35 232 0.0 0.0 0.00 0.00 0.00 87 1014.1
20240413120623 35 232 0.0 0.0 0.00 0.00 0.00 87 1014.3
20240413120121 35 232 0.0 0.0 0.00 0.00 0.00 86 1014.3
20240413115621 35 232 0.0 0.0 0.00 0.00 0.00 86 1014.5
20240413115119 35 232 0.0 0.0 0.00 0.00 0.00 86 1014.5
20240413114618 35 232 0.0 0.0 0.00 0.00 0.00 86 1014.5
20240413114118 35 232 0.0 0.0 0.00 0.00 0.00 85 1014.5
20240413113618 35 232 0.0 0.0 0.00 0.00 0.00 87 1014.4
20240413113117 34 232 0.0 0.0 0.00 0.00 0.00 87 1014.6
20240413112616 35 232 0.0 0.0 0.00 0.00 0.00 86 1014.5
20240413112114 35 232 0.0 0.0 0.00 0.00 0.00 86 1014.6
20240413111613 35 232 0.0 0.0 0.00 0.00 0.00 86 1014.5
20240413111112 35 232 0.0 0.0 0.00 0.00 0.00 87 1014.6
20240413110611 35 232 0.0 0.0 0.00 0.00 0.00 87 1014.7
20240413110109 35 232 0.0 0.0 0.00 0.00 0.00 86 1014.7
20240413105608 35 232 0.0 0.0 0.00 0.00 0.00 86 1014.7
20240413105107 35 232 0.0 0.0 0.00 0.00 0.00 85 1014.8
20240413104605 35 232 0.0 0.0 0.00 0.00 0.00 87 1014.9
20240413104104 35 232 0.0 0.0 0.00 0.00 0.00 86 1014.9
20240413103602 35 232 0.0 0.0 0.00 0.00 0.00 87 1015.1
20240413103102 34 232 0.0 0.0 0.00 0.00 0.00 87 1015.1
20240413102601 34 232 0.0 0.0 0.00 0.00 0.00 86 1015.2
20240413102059 35 232 0.0 0.0 0.00 0.00 0.00 87 1015.0
20240413101558 34 232 0.0 0.0 0.00 0.00 0.00 87 1015.1
20240413101058 35 232 0.0 0.0 0.00 0.00 0.00 86 1015.0
20240413100557 35 232 0.0 0.0 0.00 0.00 0.00 85 1015.1
20240413100056 34 232 0.0 0.0 0.00 0.00 0.00 86 1015.1
20240413095555 34 232 0.0 0.0 0.00 0.00 0.00 86 1015.1
20240413095054 34 232 0.0 0.0 0.00 0.00 0.00 87 1015.1
20240413094551 34 232 0.0 0.0 0.00 0.00 0.00 86 1015.1
20240413094050 34 232 0.0 0.0 0.00 0.00 0.00 87 1015.3
20240413093548 34 232 0.0 0.0 0.00 0.00 0.00 87 1015.4
20240413093046 34 232 0.0 0.0 0.00 0.00 0.00 88 1015.5
20240413092545 34 232 0.0 0.0 0.00 0.00 0.00 89 1015.3
20240413092045 34 232 0.0 0.0 0.00 0.00 0.00 88 1015.5
20240413091544 34 232 0.0 0.0 0.00 0.00 0.00 88 1015.3
20240413091044 34 232 0.0 0.0 0.00 0.00 0.00 87 1015.3
20240413090543 34 232 0.0 0.0 0.00 0.00 0.00 87 1015.2
20240413090043 34 232 0.0 0.0 0.00 0.00 0.00 87 1015.2
20240413085541 35 232 0.0 0.0 0.00 0.00 0.00 87 1015.2
20240413085040 34 232 0.0 0.0 0.00 0.00 0.00 88 1015.5
20240413084539 34 232 0.0 0.0 0.00 0.00 0.00 89 1015.6
20240413084039 34 232 0.0 0.0 0.00 0.00 0.00 88 1015.5
20240413083537 34 232 0.0 0.0 0.00 0.00 0.00 88 1015.5
20240413083036 34 232 0.0 0.0 0.00 0.00 0.00 88 1015.5